TimeEDT,TemperatureF,Dew PointF,Humidity,Sea Level PressureIn,VisibilityMPH,Wind Direction,Wind SpeedMPH,Gust SpeedMPH,PrecipitationIn,Events,Conditions,WindDirDegrees,DateUTC
12:53 AM,28.9,19.0,67,30.16,10.0,SSW,4.6,-,N/A,,Clear,200,2013-03-15 04:53:00
1:53 AM,28.0,19.9,72,30.14,10.0,SSW,3.5,-,N/A,,Clear,210,2013-03-15 05:53:00
2:53 AM,28.0,19.9,72,30.14,10.0,SSW,3.5,-,N/A,,Clear,200,2013-03-15 06:53:00
3:53 AM,27.0,19.9,75,30.12,10.0,SW,3.5,-,N/A,,Clear,220,2013-03-15 07:53:00
4:53 AM,28.0,19.9,72,30.10,10.0,SSW,3.5,-,N/A,,Mostly Cloudy,210,2013-03-15 08:53:00
5:53 AM,28.9,19.0,67,30.08,10.0,SW,4.6,-,N/A,,Mostly Cloudy,230,2013-03-15 09:53:00
6:53 AM,28.9,19.9,69,30.07,10.0,SSW,4.6,-,N/A,,Mostly Cloudy,200,2013-03-15 10:53:00
7:53 AM,28.0,19.9,72,30.06,10.0,SSW,5.8,-,N/A,,Clear,200,2013-03-15 11:53:00
8:53 AM,30.9,21.0,67,30.04,10.0,SSW,4.6,-,N/A,,Partly Cloudy,210,2013-03-15 12:53:00
9:53 AM,34.0,25.0,70,30.03,10.0,SW,8.1,-,N/A,,Clear,220,2013-03-15 13:53:00
10:53 AM,37.9,28.0,68,30.02,10.0,SW,10.4,33.4,N/A,,Mostly Cloudy,230,2013-03-15 14:53:00
11:53 AM,42.1,28.9,60,29.99,10.0,SSW,9.2,23.0,N/A,,Clear,210,2013-03-15 15:53:00
12:53 PM,46.0,30.0,54,29.95,10.0,WSW,6.9,-,N/A,,Clear,250,2013-03-15 16:53:00
1:53 PM,48.0,30.0,50,29.93,10.0,WSW,8.1,16.1,N/A,,Clear,240,2013-03-15 17:53:00
2:53 PM,48.9,30.9,50,29.90,10.0,West,6.9,-,N/A,,Clear,260,2013-03-15 18:53:00
3:53 PM,50.0,33.1,52,29.88,10.0,WSW,9.2,-,N/A,,Clear,250,2013-03-15 19:53:00
4:53 PM,51.1,34.0,52,29.87,10.0,West,9.2,-,N/A,,Partly Cloudy,270,2013-03-15 20:53:00
5:53 PM,50.0,34.0,54,29.87,10.0,West,10.4,18.4,N/A,,Partly Cloudy,280,2013-03-15 21:53:00
6:53 PM,48.0,34.0,58,29.87,10.0,West,6.9,-,N/A,,Scattered Clouds,270,2013-03-15 22:53:00
7:53 PM,46.9,34.0,61,29.89,10.0,West,9.2,-,N/A,,Overcast,270,2013-03-15 23:53:00
8:53 PM,46.0,34.0,63,29.89,10.0,West,4.6,-,N/A,,Overcast,270,2013-03-16 00:53:00
9:53 PM,46.0,34.0,63,29.88,10.0,Calm,Calm,-,N/A,,Overcast,0,2013-03-16 01:53:00
10:53 PM,45.0,35.1,68,29.88,10.0,Calm,Calm,-,N/A,,Overcast,0,2013-03-16 02:53:00
11:53 PM,43.0,37.9,82,29.87,8.0,SW,3.5,-,0.00,Rain,Light Rain,220,2013-03-16 03:53:00